Regional Weather Roundup
Issued by NWS Bismarck, ND

Home | Current Version | Previous Version | Text Only | Print | Product List | Glossary On
Versions: 1 2 3 4 5 6 7 8 9 10 11 12 13 14 15 16 17 18 19 20 21 22 23 24 25 26 27 28 29 30 31 32 33 34 35 36 37 38 39 40 41 42 43 44 45 46 47 48 49 50
000
ASUS43 KBIS 261620
RWRBIS

NWR BROADCAST TEXT
NATIONAL WEATHER SERVICE BISMARCK ND
1000 AM CST WED NOV 26 2014

NOTE: "FAIR" INDICATES FEW OR NO CLOUDS BELOW 12,000 FEET WITH NO
SIGNIFICANT WEATHER AND/OR OBSTRUCTIONS TO VISIBILITY.


CITY           SKY/WX    TMP DP  RH WIND       PRES   REMARKS
WILLISTON      CLOUDY    10   4  76 N9        30.34R WCI  -3
MINOT          CLOUDY     2  -3  80 N5        30.38R HAZE    WCI  -8
MINOT AFB      CLOUDY     1  -2  85 N3        30.39R
BISMARCK       LGT SNOW   8   2  76 E6        30.36R WCI  -2
DICKINSON      CLOUDY    18  14  84 NE5       30.24R WCI  11
GARRISON         N/A      7   2  80 NE3       30.33R
HETTINGER ARPT LGT SNOW  22  19  89 CALM      30.24R FOG
JAMESTOWN      CLOUDY     2  -6  69 N13       30.35R WCI -15
BEACH          LGT SNOW  18  18 100 N8        30.27R WCI   7
CARRINGTON     LGT SNOW   1  -2  85 N9        30.37R WCI -14
CROSBY         FAIR      -2  -6  84 N6        30.37S WCI -14
HARVEY         FLURRIES   1  -2  85 N6        30.38R WCI -10
HAZEN          FLURRIES   9   3  78 E5        30.36R WCI   0
LINTON         LGT SNOW   7   1  78 N6        30.34R WCI  -3
MANDAN         LGT SNOW   7   3  85 CALM      30.34R
OAKES            N/A      5  -4  66 N17       30.35R WCI -14
RUGBY          PTSUNNY    0  -4  85 E8        30.39R WCI -15
STANLEY        FLURRIES   5   3  92 E7        30.32R WCI  -7
TIOGA          PTSUNNY    5   3  92 N5        30.34R WCI  -4
$$

CITY           SKY/WX    TMP DP  RH WIND       PRES   REMARKS
GRAND FORKS    CLOUDY     0  -7  72 N15       30.44R WCI -19
GRAND FORKS AF CLOUDY    -2  -8  78 N14       30.44R WCI -21
DEVILS LAKE    CLOUDY     1 -11  55 N10       30.37R WCI -14
FARGO          CLOUDY     4  -3  73 N16       30.37R WCI -15
CANDO          CLOUDY    -2  -8  78 N12       30.40R WCI -20
CAVALIER       FAIR      -2  -8  78 N14G20    30.46S WCI -21
GRAFTON        PTSUNNY   -2  -9  71 N16       30.47R WCI -23
GWINNER        PTSUNNY    7  -4  61 N22       30.35R WCI -14
LANGDON        FAIR      -2 -11  65 N13       30.37R WCI -21
ROLLA          FAIR      -4  -9  77 NE8       30.37R WCI -19
WALHALLA         N/A     -4  -9  77 N12       30.46S WCI -22
$$

CITY           SKY/WX    TMP DP  RH WIND       PRES   REMARKS
ABERDEEN       CLOUDY     6  -2  69 N17       30.36R WCI -13
MOBRIDGE       CLOUDY    13   7  77 N6        30.29R WCI   4
BUFFALO          N/A     26  22  84 SW7       30.15R WCI  18
RAPID CITY     CLOUDY    24  21  88 SE6       30.24R WCI  17
GLASGOW        CLOUDY    22  17  81 SE9       30.27R WCI  12
SIDNEY         PTSUNNY   16   9  73 N7        30.36R WCI   6
WOLF POINT     FLURRIES  20  14  77 E7        30.33R WCI  11
GLENDIVE       CLOUDY    18  16  93 NE12      30.30R WCI   5
MILES CITY     LGT SNOW  27  25  92 NE7       30.24R FOG     WCI  19
BAKER          LGT SNOW  24  21  88 N10       30.24R VSB 1   WCI  14
$$

CITY           SKY/WX    TMP DP  RH WIND       PRES   REMARKS
BILLINGS       LGT SNOW  28  27  96 S3        30.19R VSB 3/4
GREAT FALLS    LGT SNOW  30  28  93 CALM      30.13S VSB 3/4
REGINA         PTCLDY    -9 -13  84 VRB2      30.39R
ESTEVAN        PTSUNNY   -2  -8  78 NE7       30.37R WCI -16
$$



USA.gov is the U.S. government's official web portal to all federal, state and local government web resources and services.